Location: Pinon Hills
(34.4429°N, 117.6403°W)
Time: 08:57:32
(UTC-07:00)

Amateur Radio Satellites - All Passes

Search period start: 25 July 2014 08:27
Search period end: 26 July 2014 08:27
Location: Pinon Hills, 34.4429°N, 117.6403°W

Satellite Date Start Highest point End Downlink Frequencies (MHz)
Time Altitude Azimuth
ISS 25 Jul 08:45:58 08:49:11 42° 227° (SW) 08:52:21 145.800 FM
KITSAT 1 25 Jul 08:58:55 09:04:52 22° 315° (NW) 09:10:51 435.175 FM
HO-68 25 Jul 09:07:50 09:14:04 32° 98° (E) 09:20:15 435.675 MHz FM
Saudisat 1A 25 Jul 09:09:15 09:13:22 38° 304° (NW) 09:17:30 436.775 MHz
PANSAT 25 Jul 09:19:55 09:23:21 31° 186° (S) 09:26:46 not established
Oscar 11 25 Jul 09:30:20 09:32:18 13° 93° (E) 09:34:16 145.825 FM, Beacon 2401.500 USB
UKube-1 25 Jul 10:14:44 10:19:06 85° 284° (WNW) 10:23:26 145.840 MHz, 145.915 MHz
Sapphire 25 Jul 10:15:43 10:19:59 23° 54° (NE) 10:24:13 437.095 MHz 1200 baud AX-25 AFSK
PCSat 25 Jul 10:48:55 10:54:09 47° 60° (ENE) 10:59:20 145.825 MHz
HO-68 25 Jul 10:55:10 11:01:46 42° 293° (WNW) 11:08:21 435.675 MHz FM
PANSAT 25 Jul 11:00:35 11:03:04 16° 198° (SSW) 11:05:32 not established
Oscar 11 25 Jul 11:04:33 11:08:40 44° 286° (WNW) 11:12:46 145.825 FM, Beacon 2401.500 USB
FUNcube-1 25 Jul 11:14:34 11:18:44 80° 102° (ESE) 11:22:56 145.950 - 145.970 MHz USB
Sapphire 25 Jul 11:58:26 12:03:33 43° 250° (WSW) 12:08:38 437.095 MHz 1200 baud AX-25 AFSK
RS-15 25 Jul 12:19:37 12:27:13 21° 102° (ESE) 12:34:39 29.354 - 29.394 USB, Beacon 29.352 USB
PCSat 25 Jul 12:33:23 12:37:08 19° 255° (WSW) 12:40:53 145.825 MHz
SO-50 25 Jul 13:00:46 13:05:01 47° 115° (ESE) 13:09:21 436.795 FM
Oscar 19 25 Jul 13:13:45 13:18:33 44° 72° (ENE) 13:23:23 437.125 CW, 437.150 USB
JAS-1B 25 Jul 13:35:09 13:42:23 31° 61° (ENE) 13:50:20 435.800 - 435.900 CW/SSB
Oscar 16 25 Jul 13:41:05 13:46:12 88° 76° (ENE) 13:51:20 437.025 USB, Beacon 2401.1428
TMSAT-1 25 Jul 13:53:55 13:56:25 14° 64° (ENE) 13:58:56 436.925 FM
ITAMSAT 1 25 Jul 13:53:58 13:58:59 50° 73° (ENE) 14:04:01 435.822 SSB
AO-Echo 25 Jul 14:00:04 14:05:14 59° 74° (ENE) 14:10:28 ?
AO-27 25 Jul 14:11:55 14:17:08 78° 75° (ENE) 14:22:22 436.795 MHz FM
Gurwin Techsat 1B 25 Jul 14:13:23 14:17:56 30° 69° (ENE) 14:22:31 435.225 FM
Uribyol 2 25 Jul 14:14:13 14:19:26 86° 76° (ENE) 14:24:39 436.500 FM
RS-15 25 Jul 14:27:00 14:38:15 82° 299° (WNW) 14:49:14 29.354 - 29.394 USB, Beacon 29.352 USB
SO-50 25 Jul 14:42:55 14:45:49 17° 311° (NW) 14:48:47 436.795 FM
AO-7 25 Jul 14:53:29 14:59:38 24° 58° (ENE) 15:05:46 29.400 - 29.500 MHz
Oscar 19 25 Jul 14:54:39 14:58:03 18° 266° (W) 15:01:28 437.125 CW, 437.150 USB
KITSAT 1 25 Jul 14:58:42 15:04:52 23° 46° (NE) 15:10:59 435.175 FM
UOSAT-12 25 Jul 15:22:38 15:27:12 84° 299° (WNW) 15:31:53 437.025 FM, 437.400 FM
JAS-1B 25 Jul 15:23:53 15:32:04 61° 260° (W) 15:41:34 435.800 - 435.900 CW/SSB
TMSAT-1 25 Jul 15:30:28 15:35:43 66° 258° (WSW) 15:41:01 436.925 FM
ITAMSAT 1 25 Jul 15:35:32 15:38:42 16° 267° (W) 15:41:53 435.822 SSB
AO-Echo 25 Jul 15:41:37 15:44:19 14° 268° (W) 15:47:02 ?
Gurwin Techsat 1B 25 Jul 15:53:18 15:57:49 28° 264° (W) 16:02:21 435.225 FM
Uosat F 25 Jul 15:54:13 15:59:00 46° 72° (ENE) 16:03:49 435.120 FM
OPAL 25 Jul 16:35:51 16:40:47 51° 102° (ESE) 16:45:45 ?
AO-7 25 Jul 16:43:17 16:51:36 72° 255° (WSW) 16:59:59 29.400 - 29.500 MHz
RS-15 25 Jul 16:44:16 16:52:27 23° 323° (NW) 17:00:37 29.354 - 29.394 USB, Beacon 29.352 USB
KITSAT 1 25 Jul 16:52:59 17:01:04 78° 246° (WSW) 17:09:05 435.175 FM
UOSAT-12 25 Jul 17:07:51 17:08:04 10° 317° (NW) 17:08:18 437.025 FM, 437.400 FM
Hamsat 25 Jul 17:32:54 17:36:30 29° 72° (ENE) 17:40:08 145.90 MHz
Uosat F 25 Jul 17:34:46 17:37:58 17° 266° (W) 17:41:10 435.120 FM
Saudisat 1A 25 Jul 17:39:00 17:43:21 59° 59° (ENE) 17:47:40 436.775 MHz
JAS-2 25 Jul 17:50:45 17:58:16 52° 71° (ENE) 18:05:31 435.800 - 435.900 CW/SSB, 435.910 FM
OPAL 25 Jul 18:16:04 18:19:14 17° 296° (WNW) 18:22:25 ?
KITSAT 1 25 Jul 18:53:00 18:55:08 11° 261° (W) 18:57:17 435.175 FM
STRAND 1 25 Jul 18:53:25 18:57:47 28° 97° (E) 19:02:06 ?
SO-67 25 Jul 18:55:19 18:58:30 35° 74° (ENE) 19:01:41 435.3500 MHz FM
RS-15 25 Jul 19:09:34 19:11:08 10° 0° (N) 19:12:41 29.354 - 29.394 USB, Beacon 29.352 USB
Hamsat 25 Jul 19:09:39 19:12:29 18° 266° (W) 19:15:19 145.90 MHz
Saudisat 1A 25 Jul 19:21:20 19:22:23 11° 253° (WSW) 19:23:25 436.775 MHz
HO-68 25 Jul 19:34:44 19:39:04 17° 59° (ENE) 19:43:23 435.675 MHz FM
JAS-2 25 Jul 19:36:42 19:43:20 30° 265° (W) 19:49:51 435.800 - 435.900 CW/SSB, 435.910 FM
STRAND 1 25 Jul 20:32:33 20:36:51 28° 291° (WNW) 20:41:08 ?
UKube-1 25 Jul 21:06:38 21:10:52 52° 74° (ENE) 21:15:07 145.840 MHz, 145.915 MHz
HO-68 25 Jul 21:18:43 21:25:54 81° 255° (WSW) 21:33:06 435.675 MHz FM
RS-15 25 Jul 21:21:29 21:29:48 23° 37° (NE) 21:38:14 29.354 - 29.394 USB, Beacon 29.352 USB
SO-50 25 Jul 21:36:17 21:39:43 19° 50° (NE) 21:43:10 436.795 FM
MaSat-1 25 Jul 21:54:36 21:58:19 75° 111° (ESE) 22:02:45 437.345 MHz
Oscar 11 25 Jul 21:55:38 21:59:56 90° 80° (E) 22:04:16 145.825 FM, Beacon 2401.500 USB
FUNcube-1 25 Jul 22:07:33 22:11:40 40° 74° (ENE) 22:15:42 145.950 - 145.970 MHz USB
UKube-1 25 Jul 22:46:06 22:47:20 11° 267° (W) 22:48:33 145.840 MHz, 145.915 MHz
HO-68 25 Jul 23:13:25 23:14:26 10° 270° (W) 23:15:27 435.675 MHz FM
Lituanica SAT-1 25 Jul 23:13:46 23:15:38 30° 320° (NW) 23:17:30 437.275 MHz beacon
SO-50 25 Jul 23:15:55 23:20:29 46° 245° (WSW) 23:25:05 436.795 FM
RS-15 25 Jul 23:32:51 23:44:00 82° 61° (ENE) 23:55:35 29.354 - 29.394 USB, Beacon 29.352 USB
FUNcube-1 25 Jul 23:45:53 23:48:10 14° 266° (W) 23:50:27 145.950 - 145.970 MHz USB
ISS 25 Jul 23:49:16 23:52:16 32° 131° (SE) 23:55:19 145.800 FM
UOSAT-12 25 Jul 23:55:57 00:00:11 32° 54° (NE) 00:04:21 437.025 FM, 437.400 FM
Sapphire 26 Jul 00:53:27 00:58:27 40° 110° (ESE) 01:03:29 437.095 MHz 1200 baud AX-25 AFSK
ISS 26 Jul 01:26:21 01:29:02 22° 327° (NNW) 01:31:43 145.800 FM
PCSat 26 Jul 01:26:44 01:32:08 89° 295° (WNW) 01:37:34 145.825 MHz
Oscar 19 26 Jul 01:29:38 01:33:29 21° 95° (E) 01:37:20 437.125 CW, 437.150 USB
UOSAT-12 26 Jul 01:36:23 01:40:10 24° 249° (WSW) 01:43:53 437.025 FM, 437.400 FM
RS-15 26 Jul 01:47:23 01:55:05 22° 258° (WSW) 02:03:01 29.354 - 29.394 USB, Beacon 29.352 USB
Oscar 16 26 Jul 01:56:36 02:01:29 42° 99° (E) 02:06:21 437.025 USB, Beacon 2401.1428
ITAMSAT 1 26 Jul 02:11:11 02:15:18 24° 96° (E) 02:19:24 435.822 SSB
AO-Echo 26 Jul 02:12:02 02:16:10 25° 95° (E) 02:20:10 ?
AO-27 26 Jul 02:28:59 02:33:46 37° 98° (E) 02:38:31 436.795 MHz FM
Uribyol 2 26 Jul 02:30:54 02:35:46 40° 99° (E) 02:40:35 436.500 FM
Gurwin Techsat 1B 26 Jul 02:34:11 02:37:19 16° 93° (E) 02:40:26 435.225 FM
Sapphire 26 Jul 02:37:37 02:41:58 24° 306° (NW) 02:46:21 437.095 MHz 1200 baud AX-25 AFSK
Oscar 19 26 Jul 03:08:08 03:12:53 38° 289° (WNW) 03:17:39 437.125 CW, 437.150 USB
PCSat 26 Jul 03:14:10 03:16:17 12° 313° (NW) 03:18:25 145.825 MHz
JAS-1B 26 Jul 03:14:44 03:24:02 62° 100° (E) 03:31:55 435.800 - 435.900 CW/SSB
Oscar 16 26 Jul 03:36:49 03:40:29 20° 293° (WNW) 03:44:09 437.025 USB, Beacon 2401.1428
OPAL 26 Jul 03:47:30 03:52:22 61° 72° (ENE) 03:57:14 ?
TMSAT-1 26 Jul 03:49:58 03:55:15 67° 102° (ESE) 04:00:30 436.925 FM
ITAMSAT 1 26 Jul 03:50:10 03:54:47 34° 290° (WNW) 03:59:23 435.822 SSB
AO-Echo 26 Jul 03:50:28 03:54:53 30° 290° (WNW) 03:59:09 ?
Uosat F 26 Jul 04:06:33 04:10:02 19° 95° (E) 04:13:29 435.120 FM
AO-27 26 Jul 04:09:04 04:13:01 22° 293° (WNW) 04:16:56 436.795 MHz FM
Uribyol 2 26 Jul 04:11:11 04:14:54 21° 293° (WNW) 04:18:37 436.500 FM
Gurwin Techsat 1B 26 Jul 04:12:23 04:17:32 52° 287° (WNW) 04:22:39 435.225 FM
AO-7 26 Jul 04:49:07 04:57:09 50° 102° (ESE) 05:05:06 29.400 - 29.500 MHz
JAS-1B 26 Jul 05:06:02 05:13:42 29° 300° (WNW) 05:20:35 435.800 - 435.900 CW/SSB
KITSAT 1 26 Jul 05:24:15 05:30:03 22° 103° (ESE) 05:35:50 435.175 FM
Lituanica SAT-1 26 Jul 05:28:36 05:29:40 13° 35° (NE) 05:30:43 437.275 MHz beacon
OPAL 26 Jul 05:29:43 05:31:35 12° 266° (W) 05:33:26 ?
TMSAT-1 26 Jul 05:32:07 05:34:32 13° 297° (WNW) 05:36:58 436.925 FM
PANSAT 26 Jul 05:36:20 05:38:52 17° 162° (SSE) 05:41:25 not established
Uosat F 26 Jul 05:44:15 05:48:56 40° 289° (WNW) 05:53:34 435.120 FM
STRAND 1 26 Jul 06:05:59 06:10:23 29° 69° (ENE) 06:14:46 ?
MaSat-1 26 Jul 06:18:39 06:20:23 12° 50° (NE) 06:22:06 437.345 MHz
ISS 26 Jul 06:21:47 06:23:20 13° 27° (NNE) 06:24:53 145.800 FM
AO-7 26 Jul 06:42:26 06:49:33 33° 298° (WNW) 06:56:39 29.400 - 29.500 MHz
JAS-2 26 Jul 06:50:38 06:56:27 53° 99° (E) 07:01:40 435.800 - 435.900 CW/SSB, 435.910 FM
Hamsat 26 Jul 06:57:13 07:01:32 80° 283° (WNW) 07:05:51 145.90 MHz
Lituanica SAT-1 26 Jul 07:00:43 07:02:01 15° 229° (SW) 07:03:19 437.275 MHz beacon
PANSAT 26 Jul 07:15:09 07:18:36 31° 174° (S) 07:22:02 not established
KITSAT 1 26 Jul 07:16:37 07:24:40 68° 299° (WNW) 07:32:46 435.175 FM
Saudisat 1A 26 Jul 07:42:17 07:46:19 36° 113° (ESE) 07:50:22 436.775 MHz
STRAND 1 26 Jul 07:45:07 07:49:28 28° 263° (W) 07:53:50 ?
MaSat-1 26 Jul 07:53:12 07:58:33 87° 67° (ENE) 08:03:31 437.345 MHz
SO-67 26 Jul 07:55:19 07:58:48 75° 100° (E) 08:02:15 435.3500 MHz FM
ISS 26 Jul 07:57:06 08:00:28 88° 224° (SW) 08:03:49 145.800 FM
